• Em Portugal
  • Lista de países
  • Para 7 dias
  • Temperatura da água
  • Mapas de satélite
  • Mapa do tempo
  • Widgets de tempo
  • user-avatar
    Iniciar Sessão

    Previsão horária em Shusha

    Hoje, 20 Outubro, Sábado

    Tempo Temperatura Precipitação Vento Pressão Humidade
    00:00 +12°C° 0 mm 1 m/s 662 mmHg 72%
    01:00 +11°C° 0 mm 1 m/s 662 mmHg 71%
    02:00 +11°C° 0 mm 1 m/s 662 mmHg 71%
    03:00 +11°C° 0 mm 1 m/s 662 mmHg 70%
    04:00 +11°C° 0 mm 1 m/s 662 mmHg 70%
    05:00 +10°C° 0 mm 1 m/s 662 mmHg 71%
    06:00 +10°C° 0 mm 1 m/s 662 mmHg 71%
    07:00 +12°C° 0 mm 1 m/s 662 mmHg 66%
    08:00 +14°C° 0 mm 1 m/s 662 mmHg 62%
    09:00 +16°C° 0 mm 1 m/s 663 mmHg 55%
    10:00 +17°C° 0 mm 2 m/s 663 mmHg 53%
    11:00 +18°C° 0 mm 2 m/s 663 mmHg 50%
    12:00 +19°C° 0 mm 2 m/s 663 mmHg 47%
    13:00 +19°C° 0 mm 2 m/s 662 mmHg 48%
    14:00 +19°C° 0 mm 2 m/s 662 mmHg 48%
    15:00 +19°C° 0 mm 2 m/s 662 mmHg 48%
    16:00 +17°C° 0 mm 2 m/s 661 mmHg 55%
    17:00 +16°C° 0 mm 1 m/s 661 mmHg 62%
    18:00 +15°C° 0 mm 1 m/s 661 mmHg 69%
    19:00 +14°C° 0 mm 1 m/s 661 mmHg 69%
    20:00 +14°C° 0 mm 1 m/s 661 mmHg 68%
    21:00 +14°C° 0 mm 1 m/s 661 mmHg 68%
    22:00 +13°C° 0 mm 1 m/s 660 mmHg 67%
    23:00 +13°C° 0 mm 1 m/s 660 mmHg 67%

    Amanhã, 21 Outubro, Domingo

    Tempo Temperatura Precipitação Vento Pressão Humidade
    00:00 +13°C° 0 mm 1 m/s 660 mmHg 66%
    01:00 +13°C° 0 mm 1 m/s 660 mmHg 65%
    02:00 +12°C° 0 mm 1 m/s 660 mmHg 65%
    03:00 +12°C° 0 mm 1 m/s 660 mmHg 65%
    04:00 +12°C° 0 mm 1 m/s 660 mmHg 64%
    05:00 +12°C° 0 mm 1 m/s 660 mmHg 64%
    06:00 +11°C° 0 mm 1 m/s 660 mmHg 64%
    07:00 +13°C° 0 mm 1 m/s 661 mmHg 59%
    08:00 +15°C° 0 mm 1 m/s 661 mmHg 55%
    09:00 +18°C° 0 mm 1 m/s 662 mmHg 50%
    10:00 +19°C° 0 mm 1 m/s 662 mmHg 47%
    11:00 +19°C° 0 mm 2 m/s 662 mmHg 43%
    12:00 +20°C° 0 mm 2 m/s 662 mmHg 40%
    13:00 +20°C° 0 mm 2 m/s 662 mmHg 41%
    14:00 +20°C° 0 mm 2 m/s 662 mmHg 42%
    15:00 +19°C° 0 mm 2 m/s 662 mmHg 42%
    16:00 +18°C° 0 mm 2 m/s 661 mmHg 48%
    17:00 +18°C° 0 mm 1 m/s 661 mmHg 54%
    18:00 +15°C° 0 mm 1 m/s 661 mmHg 60%
    19:00 +15°C° 0 mm 1 m/s 661 mmHg 62%
    20:00 +14°C° 0 mm 1 m/s 661 mmHg 63%
    21:00 +14°C° 0 mm 1 m/s 661 mmHg 64%
    22:00 +13°C° 0 mm 1 m/s 661 mmHg 64%
    23:00 +13°C° 0 mm 1 m/s 661 mmHg 64%

    Depois de amanhã, 22 Outubro, Segunda-feira

    Tempo Temperatura Precipitação Vento Pressão Humidade
    00:00 +13°C° 0 mm 1 m/s 661 mmHg 63%
    01:00 +13°C° 0 mm 1 m/s 661 mmHg 63%
    02:00 +12°C° 0 mm 1 m/s 660 mmHg 63%
    03:00 +12°C° 0 mm 1 m/s 660 mmHg 63%
    04:00 +12°C° 0 mm 1 m/s 660 mmHg 63%
    05:00 +12°C° 0 mm 1 m/s 661 mmHg 64%
    06:00 +12°C° 0 mm 1 m/s 661 mmHg 64%
    07:00 +13°C° 0 mm 1 m/s 661 mmHg 61%
    08:00 +15°C° 0 mm 1 m/s 662 mmHg 58%
    09:00 +16°C° 0 mm 1 m/s 662 mmHg 55%
    10:00 +17°C° 0 mm 2 m/s 662 mmHg 53%
    11:00 +18°C° 0 mm 2 m/s 662 mmHg 50%
    12:00 +19°C° 0 mm 3 m/s 662 mmHg 48%
    13:00 +19°C° 0 mm 3 m/s 662 mmHg 49%
    14:00 +19°C° 0 mm 3 m/s 662 mmHg 51%
    15:00 +19°C° 0 mm 3 m/s 662 mmHg 52%
    16:00 +17°C° 0 mm 2 m/s 661 mmHg 58%
    17:00 +16°C° 0 mm 2 m/s 661 mmHg 65%
    18:00 +15°C° 0 mm 1 m/s 661 mmHg 71%
    19:00 +14°C° 0 mm 1 m/s 661 mmHg 72%
    20:00 +14°C° 0 mm 1 m/s 661 mmHg 72%
    21:00 +13°C° 0 mm 1 m/s 662 mmHg 72%
    22:00 +13°C° 0 mm 1 m/s 662 mmHg 73%
    23:00 +13°C° 0 mm 1 m/s 661 mmHg 73%

    23 Outubro, Terça-feira

    Tempo Temperatura Precipitação Vento Pressão Humidade
    00:00 +13°C° 0 mm 1 m/s 661 mmHg 74%
    01:00 +12°C° 0 mm 1 m/s 661 mmHg 73%
    02:00 +12°C° 0 mm 1 m/s 661 mmHg 73%
    03:00 +12°C° 0 mm 1 m/s 661 mmHg 73%
    04:00 +12°C° 0 mm 1 m/s 661 mmHg 73%
    05:00 +11°C° 0 mm 1 m/s 661 mmHg 73%
    06:00 +11°C° 0 mm 1 m/s 661 mmHg 73%
    07:00 +13°C° 0 mm 1 m/s 661 mmHg 67%
    08:00 +15°C° 0 mm 1 m/s 662 mmHg 61%
    09:00 +16°C° 0 mm 1 m/s 663 mmHg 55%
    10:00 +17°C° 0 mm 2 m/s 662 mmHg 51%
    11:00 +18°C° 0 mm 2 m/s 662 mmHg 47%
    12:00 +19°C° 0 mm 2 m/s 662 mmHg 43%
    13:00 +19°C° 0 mm 2 m/s 662 mmHg 43%
    14:00 +19°C° 0 mm 2 m/s 661 mmHg 42%
    15:00 +19°C° 0 mm 2 m/s 661 mmHg 42%
    16:00 +18°C° 0 mm 2 m/s 661 mmHg 48%
    17:00 +16°C° 0 mm 1 m/s 660 mmHg 54%
    18:00 +13°C° 0 mm 0 m/s 660 mmHg 60%
    19:00 +14°C° 0 mm 1 m/s 660 mmHg 61%
    20:00 +14°C° 0 mm 1 m/s 660 mmHg 61%
    21:00 +13°C° 0 mm 1 m/s 660 mmHg 61%
    22:00 +13°C° 0 mm 1 m/s 660 mmHg 61%
    23:00 +13°C° 0 mm 1 m/s 660 mmHg 61%

    24 Outubro, Quarta-feira

    Tempo Temperatura Precipitação Vento Pressão Humidade
    00:00 +13°C° 0 mm 1 m/s 660 mmHg 60%
    01:00 +13°C° 0 mm 1 m/s 659 mmHg 60%
    02:00 +12°C° 0 mm 2 m/s 659 mmHg 59%
    03:00 +12°C° 0 mm 2 m/s 659 mmHg 59%
    04:00 +12°C° 0 mm 2 m/s 659 mmHg 58%
    05:00 +12°C° 0 mm 2 m/s 659 mmHg 58%
    06:00 +12°C° 0 mm 2 m/s 658 mmHg 58%
    07:00 +13°C° 0 mm 2 m/s 659 mmHg 52%
    08:00 +15°C° 0 mm 1 m/s 659 mmHg 46%
    09:00 +18°C° 0 mm 1 m/s 660 mmHg 41%
    10:00 +18°C° 0 mm 2 m/s 660 mmHg 38%
    11:00 +19°C° 0 mm 2 m/s 659 mmHg 36%
    12:00 +20°C° 0 mm 3 m/s 659 mmHg 34%
    13:00 +20°C° 0 mm 3 m/s 659 mmHg 35%
    14:00 +20°C° 0 mm 2 m/s 658 mmHg 35%
    15:00 +20°C° 0 mm 2 m/s 658 mmHg 35%
    16:00 +18°C° 0 mm 2 m/s 657 mmHg 40%
    17:00 +18°C° 0 mm 1 m/s 657 mmHg 45%
    18:00 +15°C° 0 mm 1 m/s 656 mmHg 50%
    19:00 +15°C° 0 mm 1 m/s 656 mmHg 50%
    20:00 +14°C° 0 mm 1 m/s 656 mmHg 51%
    21:00 +14°C° 0 mm 1 m/s 656 mmHg 52%
    22:00 +14°C° 0 mm 1 m/s 655 mmHg 52%
    23:00 +14°C° 0 mm 1 m/s 655 mmHg 52%

    25 Outubro, Quinta-feira

    Tempo Temperatura Precipitação Vento Pressão Humidade
    00:00 +14°C° 0 mm 1 m/s 654 mmHg 52%
    01:00 +14°C° 0 mm 1 m/s 654 mmHg 53%
    02:00 +13°C° 0 mm 2 m/s 653 mmHg 53%
    03:00 +13°C° 0 mm 2 m/s 653 mmHg 54%
    04:00 +13°C° 0 mm 2 m/s 653 mmHg 55%
    05:00 +13°C° 0 mm 2 m/s 653 mmHg 55%
    06:00 +13°C° 0 mm 2 m/s 653 mmHg 56%
    07:00 +15°C° 0 mm 2 m/s 654 mmHg 50%
    08:00 +17°C° 0 mm 2 m/s 654 mmHg 45%
    09:00 +19°C° 0 mm 2 m/s 654 mmHg 39%
    10:00 +20°C° 0 mm 3 m/s 654 mmHg 35%
    11:00 +21°C° 0 mm 4 m/s 654 mmHg 31%
    12:00 +23°C° 0 mm 5 m/s 654 mmHg 27%
    13:00 +23°C° 0 mm 5 m/s 654 mmHg 29%
    14:00 +22°C° 0 mm 5 m/s 653 mmHg 30%
    15:00 +22°C° 0 mm 4 m/s 653 mmHg 32%
    16:00 +20°C° 0.1 mm 3 m/s 653 mmHg 37%
    17:00 +19°C° 0.1 mm 2 m/s 653 mmHg 42%
    18:00 +17°C° 0.1 mm 2 m/s 652 mmHg 47%
    19:00 +17°C° 0 mm 2 m/s 652 mmHg 49%
    20:00 +16°C° 0 mm 2 m/s 652 mmHg 51%
    21:00 +15°C° 0 mm 2 m/s 652 mmHg 53%
    22:00 +15°C° 0 mm 2 m/s 652 mmHg 53%
    23:00 +15°C° 0 mm 2 m/s 652 mmHg 53%
    Mostrar mais